COSMOS 1275 DEB

Satellite information

Favourite Embed

Satellite Type and Status

DEBRISIN ORBIT

Key statistics

Satellite COSMOS 1275 DEB at a glance.

Uptime

16263

Days in orbit

Revolutions

≈ 13.6

Per day

Orbit

LEO

Low Earth Orbit

Inclination

83.1

Latest

Satellite identification and parameters

Extended collection of information and parameters for COSMOS 1275 DEB.

Object identification

Identified? True

Debris? True

Object name: COSMOS 1275 DEB

International designator: 1981-053CQ

Object number (NORAD): 12747

Object ID (CCSDS): 12747

Country: COMMONWEALTH OF INDEPENDENT STATES (CIS)

Current information (Y/N): Y

RCS size: SMALL

Orbital parameters

Period: 105.648 minutes

Inclination: 83.0663 deg

SMA: 7402.891 km

Apoapsis: 1117.222 km

Periapsis: 932.29 km

RAAN: 255.4717 deg

Eccentricy: 0.01249051

Argument of periapsis: 215.2017 deg

Mean anomaly: 299.4885 deg

Mean motion: 13.63015297 rev/day

Mean motion (dot): 0.00000939 rev/day2

B* drag term: 0.0011204962 1/REarth

Two-line elements (TLE)

Creation date: Dec. 12, 2025, 10:14 a.m.

Reference frame: TEME

Reference center: EARTH

Epoch: Dec. 12, 2025, 4:33 a.m. UTC

TLE line 0: 0 COSMOS 1275 DEB

TLE line 1: 1 12747U 81053CQ 25346.18989214 .00000939 00000-0 11205-2 0 9992

TLE line 2: 2 12747 83.0663 255.4717 0124905 215.2017 299.4885 13.63015297193543

Live tracking on map

Real-time ground track for satellite COSMOS 1275 DEB.

In-orbit conjunctions

A list of the most updated potential collisions computed for object COSMOS 1275 DEB.

Target Orbit TCA Probability of collision Miss distance Type
METEOR 2-16 LEO 2025-01-13 13:25:43 0.0004776536 340.0 (m) PAYLOAD
CZ-6A DEB LEO 2024-12-06 04:01:47 0.0001016146 193.0 (m) DEBRIS
UNAMSAT LEO 2024-11-20 23:37:51 0.0002421571 49.0 (m) PAYLOAD

Associated space launch

Navigation satellite providing location information for the Tsiklon-B navigation system

COSMOS 1275 DEB was lifted into orbit during the mission ‘Kosmos-3M | Parus 27’, on board a Kosmos-3M space rocket.

The launch took place on June 4, 1981, 3:41 p.m. from 132/2.

For more information about the launch, click the button.

Launch to space Kosmos-3M | Parus 27
Kosmos-3M | Parus 27

Agency: N/A

Status: Launch Successful

Launch date: June 4, 1981, 3:41 p.m. UTC

Rocket: Kosmos-3M

Launch pad: 132/2

Location: Plesetsk Cosmodrome, Russian Federation

...

Latest news about this satellite

There are no fresh news available about this satellite. Check back as we update our databases every day.


Newsletter sign-up

Weekly statistics, charts and insights to help you stay on top of the space industry.